Location: Corralito
(10.2667°N, 66.9500°W)
Time: 22:23:46
(UTC+00:00)

GPS 2-15 Rocket1 - Visible Passes

Search period start: 04 December 2023 00:00
Search period end: 14 December 2023 00:00
Orbit: 618 x 668 km, 19.8° (Epoch: 03 December)

Date Brightness Start Highest point End Pass type
(mag) Time Alt. Az. Time Alt. Az. Time Alt. Az.
04 Dec 5.9 08:07:06 11° NE 08:07:06 11° NE 08:07:18 10° NE visible
04 Dec 4.3 09:44:35 14° NW 09:47:59 31° N 09:52:12 10° ENE visible
05 Dec 5.1 08:29:26 20° NE 08:29:26 20° NE 08:31:27 10° ENE visible
06 Dec 5.7 00:08:49 10° S 00:09:11 11° S 00:09:11 11° S visible
06 Dec 4.2 08:51:46 31° NNE 08:51:46 31° NNE 08:55:45 10° ENE visible
07 Dec 5.8 00:30:36 10° SSW 00:31:27 13° SSW 00:31:27 13° SSW visible
07 Dec 3.7 09:14:05 33° NNW 09:15:32 43° NNE 09:20:01 10° E visible
07 Dec 5.5 23:11:59 10° S 23:13:51 12° SSE 23:15:42 10° SE visible
08 Dec 6.2 00:53:34 10° SW 00:53:44 11° SW 00:53:44 11° SW visible
08 Dec 6.0 07:58:54 12° ENE 07:58:54 12° ENE 07:59:19 10° ENE visible
08 Dec 3.2 09:36:24 21° WNW 09:39:24 70° NNE 09:44:06 10° E visible
08 Dec 4.7 23:34:00 10° SSW 23:37:42 22° SSE 23:38:32 21° SE visible
09 Dec 4.9 08:21:13 27° ENE 08:21:13 27° ENE 08:23:33 10° E visible
09 Dec 3.3 09:58:42 11° WNW 10:03:12 68° SSW 10:07:54 10° ESE visible
09 Dec 4.1 23:57:00 10° SW 00:00:50 38° S 00:00:50 38° S visible
10 Dec 3.3 08:43:31 63° ENE 08:43:31 63° ENE 08:47:36 10° ESE visible
10 Dec 4.8 22:37:22 10° SSW 22:41:13 23° SSE 22:45:00 10° ESE visible
11 Dec 4.7 00:20:28 10° WSW 00:23:07 32° WSW 00:23:07 32° WSW visible
11 Dec 3.2 09:05:49 51° WSW 09:06:45 65° SSW 09:11:23 10° ESE visible
11 Dec 3.9 23:00:24 10° SW 23:04:58 42° SSE 23:07:56 19° E visible
12 Dec 5.8 00:44:17 10° W 00:45:25 17° W 00:45:25 17° W visible
12 Dec 6.1 07:50:38 13° ESE 07:50:38 13° ESE 07:51:08 10° ESE visible
12 Dec 4.1 09:28:07 21° WSW 09:30:29 35° SSW 09:34:45 10° SE visible
12 Dec 3.1 23:23:53 10° WSW 23:28:43 76° SSE 23:30:13 44° E visible
13 Dec 5.2 08:12:54 24° SE 08:12:54 24° SE 08:14:51 10° ESE visible
13 Dec 5.0 09:50:57 10° WSW 09:54:15 19° SSW 09:57:35 10° SSE visible
13 Dec 3.2 23:47:43 10° W 23:52:30 64° NNW 23:52:30 64° NNW visible
